Location: DaVinci Observatory
(43.1080°N, 78.6453°W)
Time: 21:52:11
(UTC-05:00)

OTV 5 (USA 277) - Pass Details

Date: 08 October 2017
Orbit: 404 x 417 km, 43.0° (Epoch: 07 September)

Event Time Altitude Azimuth Distance (km) Brightness Sun altitude
Rises 19:48:13 0° 205° (SSW) 2,342 ? -12.7°
Reaches altitude 10° 19:51:05 10° 178° (S) 1,483 ? -13.2°
Maximum altitude 19:52:53 14° 146° (SE) 1,274 ? -13.6°
Enters shadow 19:52:56 14° 145° (SE) 1,274 ? -13.6°
